FW7828 Weather Reports


time (UTC)temp
F
wind
direction
speed
knots
gust
knots
rain 1hr
in
rain 24hr
in
rain mn
in
humidity
%
barometer
mb
20260510021114 66 326 0.0 0.0 0.00 0.00 0.00 89 1010.2
20260510020608 66 335 0.0 0.0 0.00 0.00 0.00 88 1010.4
20260510020103 66 339 0.0 0.0 0.00 0.00 0.00 88 1010.3
20260510015600 66 339 0.0 0.0 0.00 0.00 0.00 88 1010.0
20260510015056 66 339 0.0 0.0 0.00 0.00 0.00 88 1010.2
20260510014551 66 0 0.0 0.0 0.00 0.00 0.00 87 1010.3
20260510014049 66 320 0.0 0.0 0.00 0.00 0.00 87 1010.2
20260510013544 66 319 0.0 0.0 0.00 0.00 0.00 87 1010.1
20260510013040 66 329 0.0 0.0 0.00 0.00 0.00 87 1010.2
20260510012539 66 344 0.0 0.0 0.00 0.00 0.00 87 1010.1
20260510012037 67 347 0.0 0.0 0.00 0.00 0.00 87 1010.2
20260510011536 67 336 0.0 0.0 0.00 0.00 0.00 87 1010.3
20260510011032 67 310 0.0 0.0 0.00 0.00 0.00 87 1010.0
20260510010529 67 333 0.0 0.9 0.00 0.00 0.00 86 1010.0
20260510010026 67 330 0.0 0.0 0.00 0.00 0.00 86 1010.1
20260510005521 68 334 0.0 0.0 0.00 0.00 0.00 85 1010.0
20260510005020 68 332 0.0 0.9 0.00 0.00 0.00 86 1010.0
20260510004517 67 350 0.9 0.9 0.00 0.00 0.00 87 1010.0
20260510004015 67 293 0.0 0.0 0.00 0.00 0.00 87 1009.8
20260510003511 67 333 0.0 0.0 0.00 0.00 0.00 87 1009.5
20260510003007 67 344 0.9 0.9 0.00 0.00 0.00 86 1009.5
20260510002503 68 334 0.0 0.0 0.00 0.00 0.00 86 1009.5
20260510001959 68 234 0.9 0.9 0.00 0.00 0.00 86 1009.4
20260510001457 68 355 0.0 0.0 0.00 0.00 0.00 86 1009.4
20260510000955 68 338 0.0 0.0 0.00 0.00 0.00 85 1009.4
20260510000450 68 340 0.0 0.0 0.00 0.00 0.00 85 1009.4
20260509235947 69 355 0.0 0.0 0.00 0.00 0.00 84 1009.2
20260509235444 69 338 0.0 0.0 0.00 0.00 0.00 84 1009.7
20260509234940 70 337 0.0 0.0 0.00 0.00 0.00 83 1009.4
20260509234437 70 337 0.0 0.0 0.00 0.00 0.00 82 1009.1
20260509233935 71 337 0.0 0.0 0.00 0.00 0.00 81 1009.2
20260509233432 71 337 0.0 0.0 0.00 0.00 0.00 80 1009.1
20260509232928 71 274 0.0 0.0 0.00 0.00 0.00 80 1009.2
20260509232426 71 339 0.0 0.0 0.00 0.00 0.00 79 1009.2
20260509231921 71 340 0.0 0.0 0.00 0.00 0.00 78 1009.3
20260509231418 72 301 0.0 0.0 0.00 0.00 0.00 79 1009.2
20260509230916 72 20 0.9 0.9 0.00 0.00 0.00 79 1009.1
20260509230413 72 333 0.0 0.0 0.00 0.00 0.00 80 1009.1
20260509225908 72 285 0.0 0.0 0.00 0.00 0.00 80 1009.3
20260509225406 72 269 0.0 0.0 0.00 0.00 0.00 79 1009.0
20260509224901 72 49 0.0 0.0 0.00 0.00 0.00 78 1008.8
20260509224357 73 109 0.0 0.0 0.00 0.00 0.00 78 1009.2
20260509223855 73 201 0.0 0.0 0.00 0.00 0.00 78 1009.1
20260509223351 73 182 0.0 0.0 0.00 0.00 0.00 78 1009.0
20260509222848 73 176 1.7 1.7 0.00 0.00 0.00 77 1009.2
20260509222343 73 236 0.0 0.0 0.00 0.00 0.00 76 1009.1
20260509221838 73 241 0.0 0.0 0.00 0.00 0.00 75 1009.2
20260509221336 73 267 0.0 0.0 0.00 0.00 0.00 75 1009.2
20260509220831 73 233 0.0 0.9 0.00 0.00 0.00 76 1008.9
20260509220328 73 250 0.0 0.0 0.00 0.00 0.00 74 1009.1
20260509215823 73 274 0.0 0.0 0.00 0.00 0.00 72 1008.9
20260509215320 73 254 0.0 0.0 0.00 0.00 0.00 72 1009.0
20260509214817 73 47 0.0 0.9 0.00 0.00 0.00 69 1009.0
20260509214314 74 236 0.0 0.0 0.00 0.00 0.00 69 1009.0
20260509213811 75 254 0.0 0.0 0.00 0.00 0.00 67 1009.0
20260509213307 75 248 0.0 0.0 0.00 0.00 0.00 64 1008.8
20260509212804 75 194 0.0 0.0 0.00 0.00 0.00 64 1008.8
20260509212305 75 196 0.0 0.0 0.00 0.00 0.00 65 1008.8
20260509211757 75 289 0.0 0.0 0.00 0.00 0.00 63 1008.7
20260509211253 75 139 0.0 0.0 0.00 0.00 0.00 63 1008.9
20260509210750 75 75 0.0 0.0 0.00 0.00 0.00 63 1009.0
20260509210248 74 160 0.9 1.7 0.00 0.00 0.00 61 1008.9
20260509205747 74 31 0.0 0.0 0.00 0.00 0.00 63 1009.0
20260509205242 74 117 0.9 0.9 0.00 0.00 0.00 61 1008.9
20260509204738 74 245 0.0 0.0 0.00 0.00 0.00 62 1009.0
20260509204235 75 162 0.0 0.0 0.00 0.00 0.00 63 1009.1
20260509203731 75 309 2.6 2.6 0.00 0.00 0.00 62 1008.9
20260509203229 75 130 0.9 0.9 0.00 0.00 0.00 60 1009.1
20260509202725 76 155 1.7 1.7 0.00 0.00 0.00 59 1009.1
20260509202220 78 171 0.0 0.0 0.00 0.00 0.00 55 1009.1
20260509201715 76 251 0.0 0.0 0.00 0.00 0.00 59 1008.8
20260509201212 75 208 0.0 0.9 0.00 0.00 0.00 60 1009.1
20260509200708 76 213 0.9 1.7 0.00 0.00 0.00 60 1009.2
20260509200204 76 131 1.7 2.6 0.00 0.00 0.00 59 1009.0
20260509195700 76 146 1.7 2.6 0.00 0.00 0.00 62 1009.3
20260509195155 76 164 1.7 2.6 0.00 0.00 0.00 60 1009.2
20260509194655 76 165 0.9 0.9 0.00 0.00 0.00 60 1009.3
20260509194152 76 165 2.6 4.3 0.00 0.00 0.00 60 1009.3
20260509193648 75 300 0.9 0.9 0.00 0.00 0.00 60 1009.5
20260509193144 75 296 0.0 0.0 0.00 0.00 0.00 57 1009.3
20260509192640 76 176 1.7 1.7 0.00 0.00 0.00 57 1009.3
20260509192136 76 52 0.0 0.0 0.00 0.00 0.00 55 1009.5
20260509191635 76 94 0.0 0.0 0.00 0.00 0.00 55 1009.3
20260509191132 76 135 0.9 0.9 0.00 0.00 0.00 56 1009.6
20260509190629 76 258 0.0 0.0 0.00 0.00 0.00 56 1009.8
20260509190127 76 149 2.6 4.3 0.00 0.00 0.00 54 1009.9
20260509185624 76 237 0.9 0.9 0.00 0.00 0.00 55 1009.9
20260509185120 75 123 0.0 0.0 0.00 0.00 0.00 55 1010.1
20260509184618 75 210 0.9 0.9 0.00 0.00 0.00 55 1010.0
20260509184115 76 138 1.7 1.7 0.00 0.00 0.00 53 1010.0
20260509183610 75 168 1.7 1.7 0.00 0.00 0.00 54 1009.9
20260509183106 75 174 0.9 0.9 0.00 0.00 0.00 54 1010.0
20260509182602 75 169 1.7 1.7 0.00 0.00 0.00 55 1010.0
20260509182059 75 159 2.6 2.6 0.00 0.00 0.00 53 1010.0
20260509181558 75 153 1.7 1.7 0.00 0.00 0.00 53 1010.0
20260509181054 75 79 1.7 4.3 0.00 0.00 0.00 52 1009.9
20260509180550 75 96 0.9 0.9 0.00 0.00 0.00 55 1010.0
20260509180048 75 130 0.9 0.9 0.00 0.00 0.00 56 1009.9
20260509175543 75 252 0.9 1.7 0.00 0.00 0.00 58 1009.9
20260509175040 75 178 2.6 4.3 0.00 0.00 0.00 53 1009.7
20260509174537 74 164 2.6 4.3 0.00 0.00 0.00 57 1010.0
20260509174032 74 176 2.6 5.2 0.00 0.00 0.00 56 1010.2
20260509173526 75 242 1.7 2.6 0.00 0.00 0.00 59 1010.2
20260509173023 74 180 0.9 0.9 0.00 0.00 0.00 62 1010.2
20260509172520 73 149 0.9 0.9 0.00 0.00 0.00 62 1010.4
20260509172016 73 165 3.5 4.3 0.00 0.00 0.00 61 1010.4
20260509171512 73 138 4.3 5.2 0.00 0.00 0.00 63 1010.4
20260509171009 73 176 2.6 2.6 0.00 0.00 0.00 60 1010.7
20260509170504 73 176 2.6 2.6 0.00 0.00 0.00 59 1010.7
20260509170000 74 181 2.6 4.3 0.00 0.00 0.00 59 1010.7
20260509165459 74 112 0.9 0.9 0.00 0.00 0.00 61 1010.5
20260509164955 74 215 4.3 6.1 0.00 0.00 0.00 59 1010.6
20260509164451 73 181 1.7 2.6 0.00 0.00 0.00 61 1010.5
20260509163947 74 164 4.3 7.0 0.00 0.00 0.00 55 1010.6
20260509163445 74 204 3.5 5.2 0.00 0.00 0.00 61 1010.5
20260509162943 73 181 3.5 4.3 0.00 0.00 0.00 65 1010.6
20260509162443 72 168 2.6 4.3 0.00 0.00 0.00 67 1010.6
20260509161938 72 173 2.6 2.6 0.00 0.00 0.00 68 1010.8
20260509161435 71 170 1.7 2.6 0.00 0.00 0.00 70 1010.8
20260509160930 70 216 0.0 0.0 0.00 0.00 0.00 71 1010.8
20260509160426 71 186 1.7 1.7 0.00 0.00 0.00 70 1010.9
20260509155921 72 55 0.9 1.7 0.00 0.00 0.00 68 1011.3
20260509155418 73 172 2.6 4.3 0.00 0.00 0.00 67 1011.4
20260509154915 72 186 3.5 4.3 0.00 0.00 0.00 68 1011.8
20260509154411 73 163 0.9 1.7 0.00 0.00 0.00 66 1011.8
20260509153908 73 172 3.5 4.3 0.00 0.00 0.00 67 1012.0
20260509153405 72 145 1.7 2.6 0.00 0.00 0.00 69 1012.1
20260509152902 72 172 1.7 2.6 0.00 0.00 0.00 70 1011.8
20260509152358 72 291 1.7 1.7 0.00 0.00 0.00 70 1012.4
20260509151855 71 309 0.0 0.9 0.00 0.00 0.00 74 1012.4
20260509151351 72 180 2.6 2.6 0.00 0.00 0.00 73 1012.3
20260509150850 72 243 1.7 1.7 0.00 0.00 0.00 73 1012.6
20260509150347 71 327 1.7 1.7 0.00 0.00 0.00 74 1012.5
20260509145845 71 334 0.0 0.0 0.00 0.00 0.00 74 1012.4
20260509145344 71 200 0.0 0.0 0.00 0.00 0.00 75 1012.5
20260509144841 71 15 0.9 0.9 0.00 0.00 0.00 75 1012.6
20260509144338 70 161 0.9 2.6 0.00 0.00 0.00 77 1012.4
20260509143835 70 151 1.7 1.7 0.00 0.00 0.00 77 1012.7
20260509143333 70 127 0.0 0.9 0.00 0.00 0.00 78 1012.9
20260509142829 69 155 0.9 0.9 0.00 0.00 0.00 80 1012.7
20260509142325 69 132 1.7 1.7 0.00 0.00 0.00 80 1012.7
20260509141821 70 221 0.0 0.9 0.00 0.00 0.00 79 1012.6
20260509141318 71 165 0.9 1.7 0.00 0.00 0.00 76 1012.6
20260509140814 71 179 1.7 1.7 0.00 0.00 0.00 75 1012.6
20260509140311 71 74 0.0 0.0 0.00 0.00 0.00 76 1012.4
20260509135809 71 169 0.0 0.9 0.00 0.00 0.00 78 1012.4
20260509135306 70 193 0.0 0.9 0.00 0.00 0.00 77 1012.4
20260509134804 69 109 0.9 0.9 0.00 0.00 0.00 79 1012.3
20260509134301 68 109 0.9 1.7 0.00 0.00 0.00 80 1012.5
20260509133758 68 257 0.0 0.0 0.00 0.00 0.00 81 1012.5
20260509133254 67 155 1.7 1.7 0.00 0.00 0.00 81 1012.5
20260509132753 67 163 0.9 0.9 0.00 0.00 0.00 81 1012.6
20260509132252 67 167 0.0 0.9 0.00 0.00 0.00 81 1012.7
20260509131748 67 266 0.0 0.0 0.00 0.00 0.00 81 1012.9
20260509131244 66 230 0.9 0.9 0.00 0.00 0.00 83 1012.8
20260509130741 66 169 0.9 0.9 0.00 0.00 0.00 82 1012.9
20260509130236 66 171 0.9 0.9 0.00 0.00 0.00 82 1012.9
20260509125733 66 220 0.9 0.9 0.00 0.00 0.00 83 1012.7
20260509125230 65 119 0.0 0.9 0.00 0.00 0.00 83 1012.7
20260509124726 65 112 0.9 0.9 0.00 0.00 0.00 84 1012.9
20260509124223 65 123 0.0 0.0 0.00 0.00 0.00 85 1013.0
20260509123722 64 117 0.0 0.0 0.00 0.00 0.00 85 1013.0
20260509123219 63 115 0.9 0.9 0.00 0.00 0.00 87 1012.9
20260509122714 63 127 0.9 0.9 0.00 0.00 0.00 90 1012.8
20260509122211 62 100 0.9 0.9 0.00 0.00 0.00 94 1012.9
20260509121707 62 76 0.0 0.0 0.00 0.00 0.00 95 1012.9
20260509121205 62 324 0.0 0.0 0.00 0.00 0.00 96 1012.8
20260509120703 61 323 0.0 0.0 0.00 0.00 0.00 96 1013.1
20260509120201 60 323 0.0 0.0 0.00 0.00 0.00 96 1013.0
20260509115658 59 322 0.0 0.0 0.00 0.00 0.00 96 1012.8
20260509115156 59 322 0.9 0.9 0.00 0.00 0.00 96 1013.2
20260509114654 58 343 0.0 0.0 0.00 0.00 0.00 96 1012.8
20260509114152 58 343 0.0 0.0 0.00 0.00 0.00 96 1012.9
20260509113650 58 343 0.0 0.0 0.00 0.00 0.00 96 1012.9
20260509113147 57 0 0.0 0.0 0.00 0.00 0.00 96 1012.8
20260509112644 57 323 0.9 0.9 0.00 0.00 0.00 96 1012.8
20260509112141 57 346 0.0 0.9 0.00 0.00 0.00 96 1012.9
20260509111638 57 318 0.9 1.7 0.00 0.00 0.00 95 1013.1
20260509111135 57 1 0.0 0.0 0.00 0.00 0.00 96 1013.0
20260509110632 57 350 0.0 0.0 0.00 0.00 0.00 96 1012.9
20260509110129 56 350 0.0 0.0 0.00 0.00 0.00 95 1013.0
20260509105627 56 350 0.0 0.0 0.00 0.00 0.00 95 1013.2
20260509105124 56 350 0.0 0.0 0.00 0.00 0.00 95 1012.7
20260509104621 56 350 0.0 0.0 0.00 0.00 0.00 95 1013.1
20260509104117 56 350 0.0 0.0 0.00 0.00 0.00 95 1013.0
20260509103615 55 350 0.0 0.0 0.00 0.00 0.00 95 1013.1
20260509103114 55 350 0.0 0.0 0.00 0.00 0.00 95 1013.0
20260509102610 55 350 0.9 0.9 0.00 0.00 0.00 95 1013.1
20260509102107 55 350 0.9 0.9 0.00 0.00 0.00 95 1013.1
20260509101604 55 350 0.0 0.0 0.00 0.00 0.00 95 1013.0
20260509101101 55 350 0.0 0.0 0.00 0.00 0.00 95 1012.9
20260509100558 55 351 0.0 0.0 0.00 0.00 0.00 95 1012.7
20260509100055 55 350 0.0 0.9 0.00 0.00 0.00 95 1012.8
20260509095551 55 350 0.0 0.0 0.00 0.00 0.00 95 1012.7
20260509095049 54 350 0.0 0.0 0.00 0.00 0.00 95 1012.8
20260509094545 54 350 0.0 0.0 0.00 0.00 0.00 95 1012.6
20260509094043 54 350 0.0 0.0 0.00 0.00 0.00 95 1012.8
20260509093541 54 350 0.0 0.0 0.00 0.00 0.00 95 1012.8
20260509093038 55 350 0.0 0.0 0.00 0.00 0.00 95 1012.8
20260509092536 55 350 0.0 0.0 0.00 0.00 0.00 95 1013.0
20260509092035 55 350 0.0 0.0 0.00 0.00 0.00 95 1013.2
20260509091531 55 350 0.0 0.0 0.00 0.00 0.00 95 1013.1
20260509091028 55 350 0.0 0.0 0.00 0.00 0.00 95 1013.4
20260509090525 55 350 0.0 0.0 0.00 0.00 0.00 95 1013.3
20260509090023 55 350 0.0 0.0 0.00 0.00 0.00 95 1013.2
20260509085520 55 350 0.0 0.0 0.00 0.00 0.00 95 1013.4
20260509085015 55 350 0.0 0.0 0.00 0.00 0.00 95 1013.3
20260509084513 55 350 0.0 0.0 0.00 0.00 0.00 95 1013.5
20260509084010 55 350 0.0 0.0 0.00 0.00 0.00 94 1013.6
20260509083507 55 350 0.0 0.0 0.00 0.00 0.00 94 1013.4
20260509083004 55 350 0.0 0.0 0.00 0.00 0.00 94 1013.5
20260509082501 55 350 0.0 0.0 0.00 0.00 0.00 94 1013.3
20260509081958 55 350 0.0 0.0 0.00 0.00 0.00 94 1013.2
20260509081455 55 350 0.0 0.0 0.00 0.00 0.00 94 1013.6
20260509080952 56 350 0.0 0.0 0.00 0.00 0.00 94 1013.6
20260509080450 55 350 0.0 0.0 0.00 0.00 0.00 94 1013.6
20260509075948 56 350 0.0 0.0 0.00 0.00 0.00 94 1013.5
20260509075445 56 350 0.0 0.0 0.00 0.00 0.00 94 1013.4
20260509074943 56 350 0.0 0.0 0.00 0.00 0.00 94 1013.6
20260509074440 56 350 0.0 0.0 0.00 0.00 0.00 94 1013.6
20260509073936 56 350 0.0 0.0 0.00 0.00 0.00 94 1013.6
20260509073433 56 350 0.0 0.0 0.00 0.00 0.00 94 1013.5
20260509072929 55 350 0.0 0.0 0.00 0.00 0.00 93 1013.3
20260509072426 55 350 0.0 0.0 0.00 0.00 0.00 93 1013.6
20260509071923 55 350 0.0 0.0 0.00 0.00 0.00 93 1013.5
20260509071420 55 350 0.0 0.0 0.00 0.00 0.00 93 1013.7
20260509070917 56 350 0.0 0.0 0.00 0.00 0.00 93 1013.6
20260509070414 56 350 0.0 0.0 0.00 0.00 0.00 93 1013.8
20260509065909 56 350 0.0 0.0 0.00 0.00 0.00 93 1013.8
20260509065406 56 350 0.0 0.0 0.00 0.00 0.00 93 1014.0
20260509064902 56 350 0.0 0.0 0.00 0.00 0.00 93 1013.9
20260509064400 56 350 0.0 0.0 0.00 0.00 0.00 93 1014.0
20260509063857 57 350 0.0 0.0 0.00 0.00 0.00 93 1014.1
20260509063353 57 350 0.0 0.0 0.00 0.00 0.00 93 1014.1
20260509062850 57 350 0.0 0.0 0.00 0.00 0.00 93 1014.1
20260509062347 57 350 0.0 0.0 0.00 0.00 0.00 93 1013.9
20260509061844 57 350 0.0 0.0 0.00 0.00 0.00 92 1014.1
20260509061343 56 350 0.0 0.0 0.00 0.00 0.00 92 1014.3
20260509060839 57 350 0.0 0.0 0.00 0.00 0.00 92 1014.3
20260509060336 57 350 0.0 0.0 0.00 0.00 0.00 92 1014.4
20260509055831 57 350 0.0 0.0 0.00 0.00 0.00 92 1014.7
20260509055327 57 350 0.0 0.0 0.00 0.00 0.00 92 1014.7
20260509054825 57 350 0.0 0.0 0.00 0.00 0.00 92 1014.5
20260509054321 57 350 0.0 0.0 0.00 0.00 0.00 92 1014.6
20260509053820 57 350 0.0 0.0 0.00 0.00 0.00 92 1014.7
20260509053316 56 350 0.0 0.0 0.00 0.00 0.00 92 1014.6
20260509052814 56 350 0.0 0.0 0.00 0.00 0.00 92 1014.6
20260509052312 57 350 0.0 0.0 0.00 0.00 0.00 92 1014.7
20260509051809 57 350 0.0 0.0 0.00 0.00 0.00 92 1015.0
20260509051307 57 350 0.0 0.0 0.00 0.00 0.00 92 1014.9
20260509050803 57 350 0.0 0.0 0.00 0.00 0.00 92 1014.7
20260509050300 56 350 0.0 0.0 0.00 0.00 0.00 91 1014.8
20260509045757 56 350 0.0 0.9 0.00 0.00 0.00 91 1014.8
20260509045254 56 350 0.0 0.9 0.00 0.00 0.00 91 1014.9
20260509044751 56 350 0.0 0.0 0.00 0.00 0.00 91 1014.6
20260509044249 55 350 0.0 0.0 0.00 0.00 0.00 90 1014.9
20260509043745 55 350 0.0 0.0 0.00 0.00 0.00 90 1014.9
20260509043241 56 350 0.0 0.0 0.00 0.00 0.00 90 1014.8
20260509042737 56 350 0.0 0.0 0.00 0.00 0.00 90 1014.9
20260509042234 56 350 0.0 0.0 0.00 0.00 0.00 90 1014.8
20260509041731 56 350 0.0 0.0 0.00 0.00 0.00 89 1015.3
20260509041228 56 350 0.0 0.0 0.00 0.00 0.00 89 1014.9
20260509040726 56 350 0.0 0.0 0.00 0.00 0.00 89 1015.0
20260509040223 56 350 0.0 0.0 0.00 0.00 0.00 89 1014.8
20260509035719 56 350 0.0 0.0 0.00 0.00 0.00 89 1014.8
20260509035216 56 350 0.0 0.0 0.00 0.00 0.00 89 1015.1
20260509034713 56 350 0.0 0.0 0.00 0.00 0.00 89 1015.0
20260509034211 56 350 0.0 0.0 0.00 0.00 0.00 88 1015.0
20260509033708 56 350 0.0 0.0 0.00 0.00 0.00 88 1015.4
20260509033205 56 350 0.0 0.0 0.00 0.00 0.00 88 1015.3
20260509032702 56 350 0.0 0.0 0.00 0.00 0.00 88 1015.3
20260509032159 57 350 0.0 0.9 0.00 0.00 0.00 88 1015.1
20260509031656 57 352 0.0 0.0 0.00 0.00 0.00 88 1015.2
20260509031154 57 352 0.0 0.0 0.00 0.00 0.00 88 1015.3
20260509030652 57 352 0.0 0.0 0.00 0.00 0.00 87 1015.0
20260509030149 57 20 0.0 0.0 0.00 0.00 0.00 87 1015.3
20260509025645 57 20 0.0 0.0 0.00 0.00 0.00 87 1015.0
20260509025141 57 26 0.0 0.0 0.00 0.00 0.00 87 1015.4
20260509024636 57 28 0.0 0.0 0.00 0.00 0.00 86 1015.2
20260509024132 57 31 0.0 0.0 0.00 0.00 0.00 86 1015.3
20260509023631 57 32 0.0 0.0 0.00 0.00 0.00 86 1015.1
20260509023127 58 32 0.0 0.0 0.00 0.00 0.00 85 1015.6
20260509022623 58 22 0.0 0.0 0.00 0.00 0.00 85 1015.4
20260509022122 59 9 0.0 0.0 0.00 0.00 0.00 85 1015.5
20260509021618 59 9 0.0 0.0 0.00 0.00 0.00 84 1015.5